Weather History for Hays, KS

Change the Weather History Date:

Tuesday, October 22, 2013

  Actual Average Record
Temperature  
Mean Temperature 56 °F -  
Max Temperature 68 °F 63 °F 87 °F (2003)
Min Temperature 44 °F 40 °F 21 °F (2006)
Degree Days  
Heating Degree Days 9    
Growing Degree Days 6 (Base 50)    
Moisture  
Dew Point 39 °F    
Average Humidity 56    
Maximum Humidity 76    
Minimum Humidity 35    
Precipitation  
Precipitation 0.00 in - - ()
Sea Level Pressure  
Sea Level Pressure 30.06 in    
Wind  
Wind Speed 9 mph (NW)    
Max Wind Speed 22 mph    
Max Gust Speed 26 mph    
Visibility 10 miles    
Events      
Averages and records for this station are not official NWS values.
T = Trace of Precipitation, MM = Missing Value Source: NWS Daily Summary

Daily Weather History Graph

Daily Weather History Graph

Search for Another Location

Airport:

Trip Planner

Search our weather history database for the weather conditions in past years. The results will help you decide how hot, cold, wet, or windy it might be!

Date:

Astronomy

Oct. 22, 2013 Rise Set
Actual Time 7:53 AM CDT 6:48 PM CDT
Civil Twilight 7:26 AM CDT 7:15 PM CDT
Nautical Twilight 6:55 AM CDT 7:46 PM CDT
Astronomical Twilight 6:24 AM CDT 8:17 PM CDT
Moon 9:31 PM CDT (10/22) 11:21 AM CDT (10/22)
Length of Visible Light 11h 48m
Length of Day
10h 54m
Waning Gibbous, 86% of the Moon is Illuminated
Oct 22
Waning Gibbous
Oct 26
Last Quarter
Nov 3
New
Nov 9
First Quarter
Nov 17
Full

Hourly Weather History & Observations

Time (CDT) Temp. Windchill Dew Point Humidity Pressure Visibility Wind Dir Wind Speed Gust Speed Precip Events Conditions
12:15 AM 48.2 °F - 37.4 °F 66% 30.02 in 10.0 mi West 6.9 mph - N/A   Mostly Cloudy
12:35 AM 48.2 °F - 37.4 °F 66% 30.02 in 10.0 mi West 3.5 mph - N/A   Overcast
12:55 AM 48.2 °F - 37.4 °F 66% 30.02 in 10.0 mi West 5.8 mph - N/A   Overcast
1:15 AM 48.2 °F - 39.2 °F 71% 30.02 in 10.0 mi West 5.8 mph - N/A   Overcast
1:35 AM 50.0 °F - 39.2 °F 66% 30.03 in 10.0 mi West 6.9 mph - N/A   Overcast
1:55 AM 51.8 °F - 37.4 °F 58% 30.03 in 10.0 mi West 9.2 mph - N/A   Overcast
2:15 AM 51.8 °F - 37.4 °F 58% 30.04 in 10.0 mi WNW 10.4 mph - N/A   Overcast
2:35 AM 51.8 °F - 39.2 °F 62% 30.03 in 10.0 mi West 9.2 mph - N/A   Overcast
2:55 AM 53.6 °F - 39.2 °F 58% 30.02 in 10.0 mi West 9.2 mph - N/A   Overcast
3:15 AM 53.6 °F - 39.2 °F 58% 30.01 in 10.0 mi WNW 6.9 mph - N/A   Overcast
3:35 AM 53.6 °F - 39.2 °F 58% 30.02 in 10.0 mi West 8.1 mph - N/A   Overcast
3:55 AM 51.8 °F - 39.2 °F 62% 30.01 in 10.0 mi West 8.1 mph - N/A   Overcast
4:15 AM 51.8 °F - 39.2 °F 62% 30.01 in 10.0 mi WNW 5.8 mph - N/A   Overcast
4:35 AM 51.8 °F - 39.2 °F 62% 30.01 in 10.0 mi WNW 5.8 mph - N/A   Overcast
4:55 AM 51.8 °F - 39.2 °F 62% 30.01 in 10.0 mi West 8.1 mph - N/A   Overcast
5:15 AM 50.0 °F - 39.2 °F 66% 30.01 in 10.0 mi NW 4.6 mph - N/A   Mostly Cloudy
5:35 AM 48.2 °F - 39.2 °F 71% 30.01 in 10.0 mi NW 4.6 mph - N/A   Scattered Clouds
5:55 AM 48.2 °F - 39.2 °F 71% 30.02 in 10.0 mi West 10.4 mph - N/A   Partly Cloudy
6:15 AM 46.4 °F 41.9 °F 37.4 °F 71% 30.02 in 10.0 mi WNW 9.2 mph - N/A   Clear
6:35 AM 44.6 °F 40.7 °F 37.4 °F 76% 30.02 in 10.0 mi WNW 6.9 mph - N/A   Clear
6:55 AM 44.6 °F 40.2 °F 37.4 °F 76% 30.03 in 10.0 mi WNW 8.1 mph - N/A   Clear
7:15 AM 44.6 °F 40.7 °F 37.4 °F 76% 30.03 in 10.0 mi NW 6.9 mph - N/A   Clear
7:35 AM 44.6 °F 39.7 °F 37.4 °F 76% 30.04 in 10.0 mi NW 9.2 mph - N/A   Clear
7:55 AM 46.4 °F 42.9 °F 37.4 °F 71% 30.05 in 10.0 mi NW 6.9 mph - N/A   Clear
8:15 AM 46.4 °F 42.4 °F 37.4 °F 71% 30.05 in 10.0 mi NNW 8.1 mph - N/A   Clear
8:35 AM 46.4 °F 43.5 °F 39.2 °F 76% 30.05 in 10.0 mi NNW 5.8 mph - N/A   Clear
8:55 AM 50.0 °F - 41.0 °F 71% 30.06 in 10.0 mi NW 6.9 mph - N/A   Clear
9:15 AM 51.8 °F - 39.2 °F 62% 30.07 in 10.0 mi WNW 8.1 mph - N/A   Clear
9:35 AM 51.8 °F - 41.0 °F 67% 30.07 in 10.0 mi WNW 6.9 mph - N/A   Partly Cloudy
9:55 AM 51.8 °F - 41.0 °F 67% 30.07 in 10.0 mi NW 6.9 mph - N/A   Scattered Clouds
10:15 AM 55.4 °F - 42.8 °F 63% 30.08 in 10.0 mi NW 6.9 mph - N/A   Partly Cloudy
10:35 AM 57.2 °F - 41.0 °F 55% 30.08 in 10.0 mi NNW 11.5 mph - N/A   Clear
10:55 AM 60.8 °F - 41.0 °F 48% 30.08 in 10.0 mi NW 12.7 mph - N/A   Clear
11:15 AM 60.8 °F - 41.0 °F 48% 30.09 in 10.0 mi NW 13.8 mph 18.4 mph N/A   Clear
11:35 AM 62.6 °F - 41.0 °F 45% 30.09 in 10.0 mi NNW 16.1 mph 21.9 mph N/A   Clear
11:55 AM 62.6 °F - 39.2 °F 42% 30.08 in 10.0 mi NW 12.7 mph 17.3 mph N/A   Clear
12:15 PM 62.6 °F - 39.2 °F 42% 30.09 in 10.0 mi NNW 17.3 mph 20.7 mph N/A   Partly Cloudy
12:35 PM 64.4 °F - 39.2 °F 40% 30.08 in 10.0 mi NW 12.7 mph 19.6 mph N/A   Clear
12:55 PM 64.4 °F - 39.2 °F 40% 30.07 in 10.0 mi NW 13.8 mph 21.9 mph N/A   Clear
1:15 PM 64.4 °F - 39.2 °F 40% 30.07 in 10.0 mi NW 13.8 mph 19.6 mph N/A   Partly Cloudy
1:35 PM 66.2 °F - 39.2 °F 37% 30.06 in 10.0 mi NNW 11.5 mph - N/A   Scattered Clouds
1:55 PM 66.2 °F - 39.2 °F 37% 30.06 in 10.0 mi NW 21.9 mph 26.5 mph N/A   Partly Cloudy
2:15 PM 66.2 °F - 39.2 °F 37% 30.05 in 10.0 mi NNW 13.8 mph 19.6 mph N/A   Scattered Clouds
2:35 PM 66.2 °F - 41.0 °F 40% 30.05 in 10.0 mi NW 13.8 mph 20.7 mph N/A   Mostly Cloudy
2:55 PM 68.0 °F - 39.2 °F 35% 30.04 in 10.0 mi NNW 17.3 mph 23.0 mph N/A   Mostly Cloudy
3:15 PM 68.0 °F - 39.2 °F 35% 30.05 in 10.0 mi NNW 15.0 mph 19.6 mph N/A   Mostly Cloudy
3:35 PM 66.2 °F - 39.2 °F 37% 30.05 in 10.0 mi NW 15.0 mph - N/A   Mostly Cloudy
3:55 PM 66.2 °F - 39.2 °F 37% 30.05 in 10.0 mi NNW 17.3 mph 23.0 mph N/A   Mostly Cloudy
4:15 PM 66.2 °F - 37.4 °F 35% 30.05 in 10.0 mi North 16.1 mph 24.2 mph N/A   Partly Cloudy
4:35 PM 66.2 °F - 39.2 °F 37% 30.05 in 9.0 mi NNW 12.7 mph 20.7 mph N/A   Mostly Cloudy
4:55 PM 66.2 °F - 37.4 °F 35% 30.06 in 10.0 mi North 17.3 mph - N/A   Overcast
5:15 PM 66.2 °F - 39.2 °F 37% 30.05 in 10.0 mi NNW 16.1 mph 21.9 mph N/A   Scattered Clouds
5:35 PM 66.2 °F - 37.4 °F 35% 30.05 in 10.0 mi NNW 19.6 mph 23.0 mph N/A   Clear
5:55 PM 64.4 °F - 37.4 °F 37% 30.05 in 10.0 mi NNW 13.8 mph - N/A   Clear
6:15 PM 62.6 °F - 37.4 °F 39% 30.06 in 10.0 mi North 12.7 mph - N/A   Clear
6:35 PM 60.8 °F - 37.4 °F 42% 30.06 in 10.0 mi North 9.2 mph - N/A   Clear
6:55 PM 57.2 °F - 37.4 °F 48% 30.06 in 10.0 mi North 9.2 mph - N/A   Clear
7:15 PM 55.4 °F - 39.2 °F 54% 30.07 in 10.0 mi North 8.1 mph - N/A   Clear
7:35 PM 55.4 °F - 37.4 °F 51% 30.08 in 10.0 mi NNE 6.9 mph - N/A   Clear
7:55 PM 53.6 °F - 39.2 °F 58% 30.08 in 10.0 mi NNE 8.1 mph - N/A   Clear
8:15 PM 51.8 °F - 39.2 °F 62% 30.09 in 10.0 mi NNE 6.9 mph - N/A   Clear
8:35 PM 51.8 °F - 39.2 °F 62% 30.09 in 10.0 mi NNE 6.9 mph - N/A   Clear
8:55 PM 51.8 °F - 37.4 °F 58% 30.09 in 10.0 mi NNE 9.2 mph - N/A   Clear
9:15 PM 50.0 °F - 37.4 °F 62% 30.10 in 10.0 mi NNE 8.1 mph - N/A   Clear
9:35 PM 50.0 °F - 37.4 °F 62% 30.10 in 10.0 mi NNE 8.1 mph - N/A   Partly Cloudy
9:55 PM 48.2 °F - 37.4 °F 66% 30.10 in 10.0 mi NNE 5.8 mph - N/A   Clear
10:15 PM 48.2 °F - 37.4 °F 66% 30.10 in 10.0 mi NNE 9.2 mph - N/A   Clear
10:35 PM 46.4 °F 45.2 °F 37.4 °F 71% 30.11 in 10.0 mi NW 3.5 mph - N/A   Clear
10:55 PM 46.4 °F 41.9 °F 37.4 °F 71% 30.11 in 10.0 mi NNE 9.2 mph - N/A   Clear
11:15 PM 46.4 °F 42.9 °F 37.4 °F 71% 30.13 in 10.0 mi NE 6.9 mph - N/A   Clear
11:35 PM 46.4 °F 41.1 °F 37.4 °F 71% 30.13 in 10.0 mi ENE 11.5 mph - N/A   Clear
11:55 PM 44.6 °F 38.8 °F 35.6 °F 71% 30.12 in 10.0 mi ENE 11.5 mph - N/A   Clear